Location: Pian di Sc�
(43.6333°N, 11.5500°E)
Time: 14:29:21
(UTC+00:00)

IDEFIX/ARIANE 42P - Pass Details

Date: 07 August 2020
Orbit: 786 x 802 km, 98.4° (Epoch: 24 September)

Event Time Altitude Azimuth Distance (km) Brightness Sun altitude
Rises 02:10:13 0° 16° (NNE) 3,290 6.9 -18.5°
Reaches altitude 10° 02:12:35 10° 21° (NNE) 2,358 6.0 -18.2°
Maximum altitude 02:17:44 60° 101° (E) 901 3.0 -17.5°
Enters shadow 02:21:54 16° 178° (S) 1,983 4.2 -17.0°
